N8HKU-5 Weather Reports


Display with metric or nautical units.
time (UTC)temp
F
wind
direction
speed
MPH
gust
MPH
rain 1hr
in
rain 24hr
in
rain mn
in
humidity
%
barometer
mb
20260502194233 47 294 0.0 7.0 0.00 0.00 0.00 45 1014.5
20260502193234 47 0 0.0 1.0 0.00 0.00 0.00 45 1014.6
20260502192233 48 262 0.0 4.0 0.00 0.00 0.00 42 1014.7
20260502191233 48 0 0.0 0.0 0.00 0.00 0.00 42 1014.8
20260502190233 47 272 1.0 6.0 0.00 0.00 0.00 43 1014.9
20260502185234 46 250 0.0 6.0 0.00 0.00 0.00 43 1015.0
20260502184233 46 296 0.0 3.0 0.00 0.00 0.00 44 1015.0
20260502183234 47 275 0.0 3.0 0.00 0.00 0.00 43 1015.0
20260502182233 46 279 0.0 5.0 0.00 0.00 0.00 45 1015.2
20260502181233 46 0 0.0 0.0 0.00 0.00 0.00 48 1015.1
20260502180234 46 271 0.0 8.0 0.00 0.00 0.00 46 1015.3
20260502170233 46 0 0.0 0.0 0.00 0.00 0.00 48 1015.6
20260502164233 45 263 0.0 3.0 0.00 0.00 0.00 47 1015.7
20260502163233 45 294 0.0 2.0 0.00 0.00 0.00 48 1015.8
20260502162233 45 235 0.0 2.0 0.00 0.00 0.00 48 1015.7
20260502161234 46 269 0.0 3.0 0.00 0.00 0.00 46 1015.8
20260502160233 48 73 0.0 5.0 0.00 0.00 0.00 46 1015.7
20260502152235 44 0 0.0 0.0 0.00 0.04 0.00 55 1015.6
20260502151233 42 180 0.0 5.0 0.00 0.04 0.00 57 1015.6
20260502150235 44 180 0.0 2.0 0.00 0.04 0.00 58 1015.6
20260502130233 40 0 0.0 0.0 0.00 0.04 0.00 70 1015.6
20260502123233 38 0 0.0 0.0 0.00 0.04 0.00 77 1015.6
20260502122233 38 178 0.0 4.0 0.00 0.04 0.00 82 1015.6
20260502121234 36 178 0.0 2.0 0.00 0.04 0.00 88 1015.6
20260502120236 35 0 0.0 0.0 0.00 0.04 0.00 92 1015.5
20260502115233 34 136 0.0 1.0 0.00 0.04 0.00 92 1015.4
20260502114233 33 0 0.0 0.0 0.00 0.04 0.00 92 1015.5
20260502113233 31 0 0.0 0.0 0.00 0.04 0.00 92 1015.4
20260502112233 31 0 0.0 0.0 0.00 0.04 0.00 92 1015.3
20260502111233 31 0 0.0 0.0 0.00 0.04 0.00 92 1015.2
20260502110233 31 0 0.0 0.0 0.00 0.04 0.00 92 1015.1
20260502105233 32 0 0.0 0.0 0.00 0.04 0.00 92 1014.9
20260502104233 32 178 0.0 2.0 0.00 0.04 0.00 92 1014.9
20260502103233 32 0 0.0 0.0 0.00 0.04 0.00 92 1014.9
20260502102233 33 0 0.0 0.0 0.00 0.04 0.00 92 1014.9
20260502101233 33 0 0.0 0.0 0.00 0.04 0.00 91 1014.9
20260502100233 34 0 0.0 0.0 0.00 0.04 0.00 91 1014.9
20260502091233 34 0 0.0 0.0 0.00 0.04 0.00 90 1014.7
20260502090234 34 0 0.0 0.0 0.00 0.04 0.00 90 1014.7
20260502071233 37 0 0.0 0.0 0.00 0.05 0.00 85 1014.4
20260502070233 38 0 0.0 0.0 0.00 0.05 0.00 85 1014.4
20260502065233 38 0 0.0 0.0 0.00 0.05 0.00 85 1014.4
20260502064233 38 0 0.0 0.0 0.00 0.05 0.00 85 1014.5
20260502063235 38 0 0.0 0.0 0.00 0.05 0.00 84 1014.5
20260502062233 38 0 0.0 0.0 0.00 0.05 0.00 83 1014.5
20260502061233 38 0 0.0 0.0 0.00 0.05 0.00 82 1014.6
20260502060234 39 0 0.0 0.0 0.00 0.05 0.00 82 1014.6
20260502055233 39 178 0.0 1.0 0.00 0.05 0.00 81 1014.7
20260502054234 40 0 0.0 0.0 0.00 0.05 0.00 81 1014.8
20260502053233 40 0 0.0 0.0 0.00 0.05 0.00 80 1014.7
20260502052233 40 0 0.0 0.0 0.00 0.05 0.00 79 1014.7
20260502051233 40 0 0.0 0.0 0.00 0.05 0.00 80 1014.6
20260502050233 40 0 0.0 0.0 0.00 0.05 0.00 80 1014.6
20260502045233 40 0 0.0 0.0 0.00 0.05 0.00 79 1014.3
20260502044233 40 0 0.0 0.0 0.00 0.06 0.00 79 1014.3
20260502043233 40 0 0.0 0.0 0.00 0.06 0.00 78 1014.3
20260502042233 40 0 0.0 0.0 0.00 0.06 0.00 78 1014.1
20260502041233 40 0 0.0 0.0 0.00 0.06 0.00 78 1014.0
20260502040233 40 0 0.0 0.0 0.00 0.07 0.00 78 1014.0
20260502035233 40 0 0.0 0.0 0.00 0.07 0.07 77 1014.0
20260502034233 41 0 0.0 0.0 0.00 0.07 0.07 76 1013.9
20260502033233 41 0 0.0 0.0 0.00 0.07 0.07 74 1014.0
20260502032233 42 0 0.0 0.0 0.00 0.07 0.07 73 1013.9
20260502031234 42 0 0.0 0.0 0.00 0.07 0.07 74 1014.0
20260502030235 41 0 0.0 0.0 0.00 0.07 0.07 75 1013.9
20260502025234 41 0 0.0 0.0 0.00 0.07 0.07 76 1013.9
20260502024234 41 0 0.0 0.0 0.00 0.07 0.07 77 1014.0
20260502023234 41 0 0.0 0.0 0.00 0.07 0.07 76 1013.9
20260502022234 41 0 0.0 0.0 0.00 0.07 0.07 75 1013.9
20260502021234 41 0 0.0 0.0 0.00 0.07 0.07 75 1013.7
20260502020234 42 0 0.0 0.0 0.00 0.07 0.07 75 1013.6
20260502015235 42 0 0.0 0.0 0.00 0.07 0.07 75 1013.5
20260502014234 42 0 0.0 0.0 0.00 0.07 0.07 73 1013.5
20260502013234 42 0 0.0 0.0 0.00 0.07 0.07 71 1013.4
20260502012234 43 0 0.0 0.0 0.00 0.07 0.07 71 1013.3
20260502011234 43 0 0.0 0.0 0.00 0.07 0.07 70 1013.2
20260502010234 43 0 0.0 0.0 0.00 0.07 0.07 70 1013.2
20260502005234 44 0 0.0 0.0 0.00 0.07 0.07 69 1013.1
20260502004234 44 0 0.0 0.0 0.00 0.07 0.07 68 1013.1
20260502003234 44 0 0.0 0.0 0.00 0.07 0.07 68 1013.0
20260502002234 45 0 0.0 0.0 0.00 0.07 0.07 66 1013.0
20260502001234 45 244 0.0 7.0 0.00 0.07 0.07 66 1012.9
20260502000234 45 0 0.0 0.0 0.00 0.07 0.07 64 1012.7
20260501235234 45 0 0.0 0.0 0.00 0.07 0.07 65 1012.6
20260501234234 45 182 0.0 2.0 0.00 0.07 0.07 64 1012.6
20260501233234 46 182 1.0 4.0 0.00 0.07 0.07 62 1012.6
20260501232235 46 0 0.0 0.0 0.00 0.07 0.07 62 1012.4
20260501231234 46 0 0.0 0.0 0.00 0.07 0.07 64 1012.4
20260501230234 46 0 0.0 0.0 0.00 0.07 0.07 62 1012.4
20260501225234 47 0 0.0 0.0 0.00 0.07 0.07 62 1012.3
20260501224235 47 0 0.0 0.0 0.00 0.07 0.07 62 1012.3
20260501223234 48 0 0.0 0.0 0.00 0.07 0.07 59 1012.3
20260501222235 48 252 0.0 3.0 0.00 0.07 0.07 59 1012.1
20260501221234 48 183 0.0 3.0 0.00 0.07 0.07 57 1012.0
20260501220233 48 236 0.0 5.0 0.00 0.07 0.07 55 1012.1
20260501215234 49 289 0.0 6.0 0.00 0.07 0.07 54 1011.9
20260501214234 49 0 0.0 0.0 0.00 0.07 0.07 53 1011.9
20260501213234 49 0 0.0 0.0 0.00 0.07 0.07 55 1011.8
20260501212234 49 277 1.0 5.0 0.00 0.07 0.07 53 1011.6
20260501211233 49 0 0.0 0.0 0.00 0.07 0.07 55 1011.6
20260501210233 49 0 0.0 0.0 0.00 0.07 0.07 55 1011.6
20260501205236 50 0 0.0 5.0 0.00 0.07 0.07 54 1011.5
20260501204235 50 0 0.0 0.0 0.00 0.07 0.07 54 1011.5
20260501203233 49 303 0.0 1.0 0.00 0.07 0.07 53 1011.5
20260501202233 49 337 0.0 4.0 0.00 0.07 0.07 53 1011.5
20260501201234 49 239 0.0 3.0 0.00 0.07 0.07 51 1011.5
20260501200234 50 254 0.0 3.0 0.00 0.07 0.07 52 1011.4
20260501195234 51 272 0.0 6.0 0.00 0.07 0.07 50 1011.4